Regional Weather Roundup
Issued by NWS

Home | Current Version | Previous Version | Graphics & Text | Print | Product List | Glossary On
Versions: 1 2 3 4 5 6 7 8 9 10 11 12 13 14 15 16 17 18 19 20 21 22 23 24 25 26 27 28 29 30 31 32 33 34 35 36 37 38 39 40 41 42 43 44 45 46 47 48 49 50
000
ASUS44 KMEG 180700
RWRTN
TENNESSEE HOURLY STATE WEATHER ROUNDUP
NATIONAL WEATHER SERVICE MEMPHIS TN
100 AM CST THU DEC 18 2014

TNZ002-004-019-021-049-052-054-088>092-180800-
WEST TENNESSEE

CITY           SKY/WX    TMP DP  RH WIND       PRES   REMARKS
MEMPHIS INTL   CLOUDY    39  33  79 N7        30.28R WCI  34
NWS MEMPHIS      N/A     37 N/A N/A MISG        N/A
JACKSON        LGT RAIN  37  33  85 N7        30.27F WCI  32
DYERSBURG      CLOUDY    36  23  60 NE6       30.28F WCI  31
UNION CITY     CLOUDY    34  32  93 CALM      30.27F
PARIS          CLOUDY    30  28  93 NE3       30.28F
LEXINGTON      CLOUDY    36  32  87 NE7       30.25F WCI  30
SAVANNAH       CLOUDY    37  30  75 N5        30.26R WCI  34
$$

TNZ008-025-027-028-033-062-065-066-180800-
NORTH MIDDLE TENNESSEE

CITY           SKY/WX    TMP DP  RH WIND       PRES   REMARKS
NASHVILLE      CLOUDY    34  30  85 N5        30.27R WCI  30
CLARKSVILLE    CLOUDY    33  27  78 N3        30.31R
COOKEVILLE     CLEAR     27  27 100 CALM      30.22F
CROSSVILLE     PTCLDY    31  26  82 NE5       30.18F WCI  26
$$

TNZ061-075-076-078-094-096-097-180800-
SOUTH MIDDLE TENNESSEE

CITY           SKY/WX    TMP DP  RH WIND       PRES   REMARKS
FAYETTEVILLE   CLOUDY    32  28  86 MISG      30.20S
TULLAHOMA      PTCLDY    34  28  80 NE5       30.20F WCI  30
WINCHESTER     CLOUDY    32  30  93 CALM      30.21F
SHELBYVILLE    CLOUDY    34  32  93 CALM      30.23S
$$

TNZ017-018-042-046-047-180800-
NORTHEAST TENNESSEE

CITY           SKY/WX    TMP DP  RH WIND       PRES   REMARKS
TRI CITIES     CLEAR     29  27  92 CALM      30.18R
ELIZABETHTON   SUNNY     25  25 100 CALM      30.17R
$$

TNZ012-013-036-069-073-074-180800-
CENTRAL EAST TENNESSEE

CITY           SKY/WX    TMP DP  RH WIND       PRES   REMARKS
KNOXVILLE      PTCLDY    34  29  82 CALM      30.22R
OAK RIDGE      PTCLDY    31  28  89 CALM      30.23R
GATLINBURG     SUNNY     27  27 100 CALM      30.21R
$$

TNZ083-085-099-180800-
SOUTHEAST TENNESSEE

CITY           SKY/WX    TMP DP  RH WIND       PRES   REMARKS
CHATTANOOGA    CLOUDY    36  30  79 N5        30.20S WCI  32
$$

SKY/WX REPORTED AS FAIR MEANS FEW OR NO CLOUDS BELOW
12 THOUSAND FEET.




USA.gov is the U.S. government's official web portal to all federal, state and local government web resources and services.